Regional Weather Roundup
Issued by NWS

Home | Current Version | Previous Version | Text Only | Print | Product List | Glossary On
Versions: 1 2 3 4 5 6 7 8 9 10 11 12 13 14 15 16 17 18 19 20 21 22 23 24 25 26 27 28 29 30 31 32 33 34 35 36 37 38 39 40 41 42 43 44 45 46 47 48 49 50
000
ASUS44 KJAN 240410
RWRMS

MISSISSIPPI HOURLY WEATHER ROUNDUP
NATIONAL WEATHER SERVICE JACKSON MS
1100 PM CDT THU MAR 23 2017

NOTE: "FAIR: INDICATES FEW OR NO CLOUDS BELOW 12,000 FEET WITH NO
SIGNIFICANT WEATHER AND/OR OBSTRUCTIONS TO VISIBILITY.

MSZ001>002-007>008-010>013-018>021-025>028-034>036-240500-
NORTHWEST MISSISSIPPI

CITY           SKY/WX    TMP DP  RH WIND       PRES   REMARKS
BATESVILLE     FAIR      72  52  49 SE8       30.14S
CLARKSDALE     CLEAR     72  55  56 SE9       30.10S
CLEVELAND      FAIR      74  55  52 S13G18    30.10S
GREENWOOD      CLEAR     73  55  53 SE13      30.13S
GREENVILLE     CLEAR     73  52  47 SE12      30.09S
OXFORD         FAIR      68  50  52 SE12G17   30.16F
WINONA         FAIR      69  54  58 SE6       30.15S
$$

MSZ003>006-009-014>017-022>024-029>033-037>039-240500-
NORTHEAST MISSISSIPPI

CITY           SKY/WX    TMP DP  RH WIND       PRES   REMARKS
COLUMBUS AFB   CLEAR     70  57  64 SE14      30.20R
CORINTH        FAIR      66  52  59 SE8       30.16S
GOLDN TRIANGLE CLEAR    N/A N/A N/A SE15G23   30.17R
STARKVILLE     FAIR      70  55  60 SE12G18   30.21S
TUPELO         CLEAR     71  51  49 SE10      30.18S
$$

MSZ040-058-240500-
CENTRAL MISSISSIPPI

CITY           SKY/WX    TMP DP  RH WIND       PRES   REMARKS
JACKSON INTL   CLEAR     71  57  61 S12       30.17R
JACKSON HAWKNS CLEAR     71  56  58 S13       30.17R
MERIDIAN KEY   CLEAR     72  61  68 S18G25    30.23R
MERIDIAN NAS   CLEAR     73  57  57 S14       30.24R
RAYMOND        FAIR      72  57  60 SE8       30.16S
$$

MSZ059>079-240500-
SOUTH MISSISSIPPI

CITY           SKY/WX    TMP DP  RH WIND       PRES   REMARKS
BROOKHAVEN     FAIR      66  61  82 SE9       30.22R
COLUMBIA       CLOUDY    68 N/A N/A SE13      30.26
HATTIESBURG    CLOUDY    67  61  81 SE10      30.25R
MCCOMB         CLOUDY    67  61  81 SE13      30.21R
NATCHEZ        CLEAR     72  59  64 SE16      30.15S
PINE BELT      PTCLDY    66  57  72 SE12      30.26R
$$

MSZ080>082-240500-
COASTAL MISSISSIPPI

CITY           SKY/WX    TMP DP  RH WIND       PRES   REMARKS
BILOXI         CLOUDY    70  66  87 SE15      30.24S
PASCAGOULA     CLOUDY    69  64  84 SE10      30.26R
GULFPORT       CLOUDY    70  67  90 SE15      30.24R
$$

LAZ007>009-015>016-023>026-240500-
NORTHEAST LOUISIANA

CITY           SKY/WX    TMP DP  RH WIND       PRES   REMARKS
BASTROP        FAIR      72  51  47 S7        30.10R
TALLULAH/VBURG CLEAR     72  56  57 S13       30.13S
VIDALIA        MOCLDY    72  62  69 SE16G22   30.13S
$$



USA.gov is the U.S. government's official web portal to all federal, state and local government web resources and services.